Regional Weather Roundup
Issued by NWS

Home | Current Version | Previous Version | Graphics & Text | Print | Product List | Glossary On
Versions: 1 2 3 4 5 6 7 8 9 10 11 12 13 14 15 16 17 18 19 20 21 22 23 24 25 26 27 28 29 30 31 32 33 34 35 36 37 38 39 40 41 42 43 44 45 46 47 48 49 50
000
ASUS45 KCYS 201110
RWRWY

WYOMING REGIONAL WEATHER ROUNDUP
NATIONAL WEATHER SERVICE CHEYENNE WY
500 AM MDT WED AUG 20 2014

NOTE:  "FAIR" INDICATES FEW OR NO CLOUDS BELOW 12,000 FEET
WITH NO SIGNIFICANT WEATHER AND/OR OBSTRUCTIONS TO VISIBILITY.

WYZ001-201200-
YELLOWSTONE NATIONAL PARK

CITY           SKY/WX    TMP DP  RH WIND       PRES   REMARKS
LK YELLOWSTONE   N/A     39  37  92 CALM      30.09S
W YELLOWSTONE  NOT AVBL

$$
WYZ002>013-054>058-071-098>099-201200-
NORTHERN WYOMING

CITY           SKY/WX    TMP DP  RH WIND       PRES   REMARKS
JACKSON        PTCLDY    43  43 100 N3        30.02R
CODY           CLOUDY    66  43  42 W9        29.85R
GREYBULL       CLOUDY    66  55  67 CALM      29.77S
WORLAND        MOCLDY    62  53  72 CALM      29.79F
SHERIDAN       CLOUDY    71  43  36 NW12G18   29.76R
BUFFALO        CLOUDY    67  44  43 N5        29.82R
GILLETTE       MOCLDY    68  48  48 SW13      29.75F
HULETT         FAIR      72  46  40 MISG      29.77
NEWCASTLE      FAIR      68  50  52 SE3       29.81

$$
WYZ014>020-022>026-101>103-201200-
CENTRAL WYOMING

CITY           SKY/WX    TMP DP  RH WIND       PRES   REMARKS
BIG PINEY      PTCLDY    42  39  89 NW6       30.04S
PINEDALE       SUNNY     43  43 100 NW8       30.05R
DUBOIS         FAIR      46  41  81 NW8       30.00S
LANDER         PTCLDY    59  44  57 SE3       29.87F
RIVERTON       PTCLDY    59  44  57 NW8       29.88S
CASPER         MOCLDY    65  49  56 SW16G24   29.87S
DOUGLAS        LGT RAIN  63  55  75 SE8       29.89S

$$
WYZ021-027>030-104>119-201200-
SOUTHERN WYOMING

CITY           SKY/WX    TMP DP  RH WIND       PRES   REMARKS
EVANSTON       CLOUDY    52  48  86 W3        30.07R
KEMMERER       PTSUNNY   50  45  81 CALM      30.06R
FORT BRIDGER   CLOUDY    54  52  92 SW7       30.09R
ROCK SPRINGS   MOCLDY    51  48  89 CALM      30.04R
DIXON          CLOUDY    57  55  92 SW5       30.07R
RAWLINS        LGT RAIN  55  52  89 SW14      30.02S
SARATOGA       DRIZZLE   54  52  94 MISG      30.06R
LARAMIE        CLOUDY    54  51  90 SE5       30.05S
CHEYENNE       CLOUDY    63  49  60 NW6       29.96S
TORRINGTON     CLOUDY    68  51  54 CALM      29.83S
PINE BLUFFS    LGT RAIN  61  55  82 CALM      29.91F

$$


USA.gov is the U.S. government's official web portal to all federal, state and local government web resources and services.